Lufkin, TX

7:47 AM CDT on October 22, 2017 (GMT -0500)
Angelina County

Weather History for KLFK - January, 2013

Change the Weather History Date:

Friday, January 25, 2013

  Actual Average Record
Temperature  
Mean Temperature 71 °F 50 °F  
Max Temperature 79 °F 60 °F 83 °F (1950)
Min Temperature 62 °F 39 °F 18 °F (1930)
Degree Days  
Heating Degree Days 0 16  
Month to date heating degree days 347 412  
Since 1 July heating degree days 964 1190  
Cooling Degree Days 6 0  
Month to date cooling degree days 6 0  
Year to date cooling degree days 6 0  
Growing Degree Days 20 (Base 50)    
Moisture  
Dew Point 57 °F    
Average Humidity 65    
Maximum Humidity 84    
Minimum Humidity 45    
Precipitation  
Precipitation 0.00 in 0.13 in 1.68 in (2012)
Month to date precipitation 3.57 3.31  
Year to date precipitation 3.57 3.31  
Snow  
Snow 0.00 in - - ()
Month to date snowfall 0.0  
Since 1 July snowfall 0.0  
Snow Depth 0.00 in    
Sea Level Pressure  
Sea Level Pressure 30.12 in    
Wind  
Wind Speed 7 mph (South)    
Max Wind Speed 15 mph    
Max Gust Speed 21 mph    
Visibility 10 miles    
Events      
T = Trace of Precipitation, MM = Missing Value Source: NWS Daily Summary

Daily Weather History Graph

Daily Weather History Graph

Search for Another Location

Airport or City:

Trip Planner

Search our weather history database for the weather conditions in past years. The results will help you decide how hot, cold, wet, or windy it might be!

Date:

Astronomy

Jan. 25, 2013 Rise Set
Actual Time 7:14 AM CST 5:48 PM CST
Civil Twilight 6:49 AM CST 6:13 PM CST
Nautical Twilight 6:19 AM CST 6:43 PM CST
Astronomical Twilight 5:51 AM CST 7:12 PM CST
Moon 4:45 PM CST (1/25) 5:54 AM CST (1/25)
Length of Visible Light 11h 24m
Length of Day
10h 33m
Waxing Gibbous, 98% of the Moon is Illuminated
Jan 25
Waxing Gibbous
Jan 26
Full
Feb 3
Last Quarter
Feb 10
New
Feb 17
First Quarter

Hourly Weather History & Observations

Time (CST) Temp. Dew Point Humidity Pressure Visibility Wind Dir Wind Speed Gust Speed Precip Events Conditions
12:45 AM 64.4 °F 59.0 °F 83% 30.15 in 10.0 mi South 9.2 mph - N/A   Overcast
12:53 AM 64.0 °F 59.0 °F 84% 30.14 in 10.0 mi South 8.1 mph - N/A   Overcast
1:53 AM 63.0 °F 57.9 °F 84% 30.12 in 8.0 mi South 6.9 mph - N/A   Mostly Cloudy
2:53 AM 63.0 °F 57.9 °F 84% 30.12 in 10.0 mi South 5.8 mph - N/A   Mostly Cloudy
3:53 AM 64.0 °F 57.9 °F 80% 30.11 in 10.0 mi South 10.4 mph - N/A   Overcast
4:14 AM 64.4 °F 57.2 °F 77% 30.12 in 10.0 mi SSW 10.4 mph - N/A   Overcast
4:53 AM 64.9 °F 59.0 °F 81% 30.11 in 10.0 mi South 10.4 mph - N/A   Overcast
5:43 AM 64.4 °F 59.0 °F 83% 30.12 in 10.0 mi South 9.2 mph - N/A   Overcast
5:53 AM 64.9 °F 59.0 °F 81% 30.11 in 10.0 mi South 9.2 mph - N/A   Overcast
6:53 AM 64.0 °F 57.9 °F 80% 30.12 in 10.0 mi South 9.2 mph - N/A   Mostly Cloudy
7:06 AM 62.6 °F 57.2 °F 82% 30.13 in 10.0 mi South 6.9 mph - N/A   Scattered Clouds
7:53 AM 63.0 °F 57.9 °F 84% 30.14 in 10.0 mi South 6.9 mph - N/A   Mostly Cloudy
8:53 AM 64.9 °F 59.0 °F 81% 30.15 in 10.0 mi South 6.9 mph - N/A   Mostly Cloudy
9:32 AM 66.2 °F 59.0 °F 78% 30.17 in 10.0 mi SSW 9.2 mph - N/A   Overcast
9:42 AM 66.2 °F 59.0 °F 78% 30.17 in 10.0 mi SSW 10.4 mph - N/A   Overcast
9:53 AM 68.0 °F 59.0 °F 73% 30.18 in 10.0 mi SSW 9.2 mph 17.3 mph N/A   Mostly Cloudy
10:53 AM 70.0 °F 55.9 °F 61% 30.19 in 10.0 mi WSW 8.1 mph - N/A   Partly Cloudy
11:53 AM 73.0 °F 55.0 °F 53% 30.16 in 10.0 mi SSW 10.4 mph 17.3 mph N/A   Mostly Cloudy
12:53 PM 75.2 °F 55.4 °F 50% 30.14 in 10.0 mi SW 9.2 mph - N/A   Mostly Cloudy
1:53 PM 78.1 °F 55.9 °F 46% 30.09 in 10.0 mi SSW 10.4 mph 16.1 mph N/A   Partly Cloudy
2:53 PM 78.1 °F 55.9 °F 46% 30.06 in 10.0 mi SSW 13.8 mph 18.4 mph N/A   Clear
3:53 PM 78.1 °F 57.0 °F 48% 30.06 in 10.0 mi SSW 8.1 mph - N/A   Clear
4:53 PM 75.9 °F 57.0 °F 52% 30.07 in 10.0 mi SSW 8.1 mph - N/A   Partly Cloudy
5:53 PM 73.9 °F 57.0 °F 55% 30.08 in 10.0 mi South 3.5 mph - N/A   Overcast
6:53 PM 72.0 °F 57.0 °F 59% 30.09 in 10.0 mi Calm Calm - N/A   Overcast
7:53 PM 64.9 °F 57.0 °F 75% 30.10 in 10.0 mi Calm Calm - N/A   Scattered Clouds
8:53 PM 64.9 °F 57.0 °F 75% 30.10 in 10.0 mi SSE 3.5 mph - N/A   Clear
9:53 PM 64.0 °F 57.9 °F 80% 30.13 in 10.0 mi North 3.5 mph - N/A   Mostly Cloudy
10:07 PM 66.2 °F 57.2 °F 73% 30.14 in 10.0 mi North 3.5 mph - N/A   Overcast
10:34 PM 64.4 °F 57.2 °F 77% 30.14 in 10.0 mi Calm Calm - N/A   Overcast
10:53 PM 64.0 °F 57.0 °F 78% 30.14 in 10.0 mi ENE 6.9 mph - N/A   Overcast
11:53 PM 62.1 °F 55.0 °F 78% 30.15 in 8.0 mi NNE 4.6 mph - N/A   Overcast